Regional Weather Roundup
Issued by NWS

Home | Current Version | Previous Version | Graphics & Text | Print | Product List | Glossary On
Versions: 1 2 3 4 5 6 7 8 9 10 11 12 13 14 15 16 17 18 19 20 21 22 23 24 25 26 27 28 29 30 31 32 33 34 35 36 37 38 39 40 41 42 43 44 45 46 47 48 49 50
000
ASUS43 KLOT 111858
RWRIL

ILLINOIS REGIONAL WEATHER ROUNDUP
NATIONAL WEATHER SERVICE CHICAGO/ROMEOVILLE IL
200 PM CDT FRI JUL 11 2014

NOTE: "FAIR" INDICATES FEW OR NO CLOUDS BELOW 12,000 FEET WITH NO
SIGNIFICANT WEATHER AND/OR OBSTRUCTIONS TO VISIBILITY.

* THESE STATIONS ARE NOT UNDER NWS QUALITY CONTROL. THEY ALSO MAY NOT
  REPORT WEATHER SUCH AS PRECIPITATION OR FOG.

ILZ001-002-007-009-015-016-024-112000-
NORTHWEST ILLINOIS

CITY           SKY/WX    TMP DP  RH WIND       PRES   REMARKS
MOLINE         PTSUNNY   80  63  55 S14G22    30.10F HX  81
$$

ILZ003-004-008-010-011-017-018-112000-
NORTH CENTRAL ILLINOIS

CITY           SKY/WX    TMP DP  RH WIND       PRES   REMARKS
ROCKFORD       NOT AVBL
$$

ILZ005-006-012>014-019>023-112000-
NORTHEAST ILLINOIS

CITY           SKY/WX    TMP DP  RH WIND       PRES   REMARKS
CHICAGO-OHARE  PTSUNNY   79  50  36 S6        30.16F
CHICAGO-MIDWAY PTSUNNY   82  49  31 SW5       30.17F HX  81
AURORA         PTSUNNY   78  55  44 S6        30.18F
WAUKEGAN       MOSUNNY   75  53  46 E10       30.17F
DUPAGE AIRPORT MOSUNNY   80  53  39 SW9       30.17F HX  80
WHEELING       MOSUNNY   82  50  32 CALM      30.18F HX  81
NORTHERLY ISL    N/A     74  61  63 E10         N/A
$$

LMZ740>746-112000-
SOUTHERN LAKE MICHIGAN

STATION/POSITION SKY/WX   TEMP    WIND        PRES    VSBY  WAVE
                          AIR SEA DIR/SP/G                  HT/PER
                          (F)     (DEG/KT/KT) (MB)    (MI)  (FT/S)
SOUTHERN BUOY              62 60  170/  6/  6 1023.0F         1
WAUKEGAN HARBOR            72     140/  9/ 10 1023.0F
HARRISON CRIB              71     110/ 11/ 11   N/A
BURNHAM HARBOR             74     100/  8/ 10   N/A
CALUMET HARBOR             73      50/  8/ 10 1022.6F
BURNS HARBOR               79     200/  5/ 10 1022.4F
MICHIGAN CITY              75     130/  8/ 13   N/A
$$

ILZ025>027-034>036-040-047-049-050-058-095>099-112000-
WEST-CENTRAL ILLINOIS

CITY           SKY/WX    TMP DP  RH WIND       PRES   REMARKS
$$

ILZ028>032-037-038-041>044-048-051>054-059>061-112000-
CENTRAL ILLINOIS

CITY           SKY/WX    TMP DP  RH WIND       PRES   REMARKS
PEORIA         NOT AVBL
SPRINGFIELD    MOSUNNY   83  65  54 S9        30.14F HX  85
TAYLORVILLE    NOT AVBL
$$

ILZ033-039-045-046-055>057-062-063-112000-
EAST-CENTRAL ILLINOIS

CITY           SKY/WX    TMP DP  RH WIND       PRES   REMARKS
CHAMPAIGN      SUNNY     81  58  45 S8        30.18F HX  81
MATTOON        SUNNY     83  57  41 VRB6      30.17F HX  82
$$

ILZ079-100>102-112000-
SOUTHWEST ILLINOIS

CITY           SKY/WX    TMP DP  RH WIND       PRES   REMARKS
CAHOKIA*       MOSUNNY   87  67  51 S6        30.13F HX  90
$$

ILZ064>066-069>071-074>076-080>082-084>086-088>090-092>094-112000-
SOUTH-CENTRAL ILLINOIS

CITY           SKY/WX    TMP DP  RH WIND       PRES   REMARKS
CARBONDALE     MOSUNNY   87  63  44 S6        30.15F HX  88
MARION         MOSUNNY   86  64  48 S9        30.17F HX  87
$$

ILZ067-068-072-073-078-083-087-091-112000-
SOUTHEAST ILLINOIS

CITY           SKY/WX    TMP DP  RH WIND       PRES   REMARKS
$$

ABBREVIATIONS USED IN REMARKS
   TC - TEMPERATURE IN CELSIUS
  WCI - WIND CHILL INDEX
   HX - HEAT INDEX
  VSB - VISIBILITY
$$



USA.gov is the U.S. government's official web portal to all federal, state and local government web resources and services.